Terminal Aerodrome Forecast
Issued by NWS Anchorage, AK

Home | Current Version | Previous Version | Text Only | Print | Product List | Glossary On
Versions: 1 2 3 4 5 6 7 8 9 10 11 12 13 14 15 16 17
000
FTAK31 PANC 240526
TAFANC
TAF
PANC 240526Z 2406/2512 16015G22KT P6SM FEW060 SCT200
     FM242100 23008KT P6SM SCT060 BKN200
     FM251000 19006KT P6SM SCT035 OVC060=

USA.gov is the U.S. government's official web portal to all federal, state and local government web resources and services.